Location: Arthez
(43.0833°N, 0.2500°W)
Time: 00:35:03
(UTC+00:00)

CZ-4B R/B - Pass Details

Date: 23 October 2021
Orbit: 808 x 882 km, 99.1° (Epoch: 27 November)

Event Time Altitude Azimuth Distance (km) Brightness Sun altitude
Rises 18:38:39 0° 182° (S) 3,458 6.4 -17.7°
Reaches altitude 10° 18:41:08 10° 188° (S) 2,528 5.8 -18.1°
Maximum altitude 18:46:31 46° 261° (W) 1,178 4.4 -19.1°
Drops below altitude 10° 18:51:57 10° 334° (NNW) 2,547 6.0 -20.1°
Sets 18:54:28 0° 340° (NNW) 3,485 6.7 -20.5°
